TimeEST,TemperatureF,Dew PointF,Humidity,Sea Level PressureIn,VisibilityMPH,Wind Direction,Wind SpeedMPH,Gust SpeedMPH,PrecipitationIn,Events,Conditions,WindDirDegrees,DateUTC
12:53 AM,69.1,66.9,93,29.90,10.0,WSW,6.9,-,N/A,,Clear,240,2012-12-18 05:53:00
1:14 AM,69.8,66.2,88,29.90,10.0,SSW,4.6,-,N/A,,Partly Cloudy,210,2012-12-18 06:14:00
1:31 AM,69.8,66.2,88,29.90,9.0,SW,4.6,-,N/A,,Mostly Cloudy,230,2012-12-18 06:31:00
1:53 AM,69.1,66.9,93,29.91,5.0,SW,6.9,-,N/A,,Overcast,230,2012-12-18 06:53:00
2:34 AM,69.8,66.2,88,29.91,5.0,SW,5.8,-,N/A,,Scattered Clouds,230,2012-12-18 07:34:00
2:53 AM,69.1,66.9,93,29.90,5.0,SW,5.8,-,N/A,,Partly Cloudy,230,2012-12-18 07:53:00
3:05 AM,69.8,68.0,94,29.90,5.0,SW,6.9,-,N/A,,Mostly Cloudy,230,2012-12-18 08:05:00
3:48 AM,69.8,68.0,94,29.90,7.0,SW,8.1,-,N/A,,Mostly Cloudy,220,2012-12-18 08:48:00
3:53 AM,69.1,68.0,96,29.90,7.0,SW,6.9,-,N/A,,Mostly Cloudy,220,2012-12-18 08:53:00
4:02 AM,69.8,68.0,94,29.91,6.0,SW,8.1,-,N/A,,Mostly Cloudy,230,2012-12-18 09:02:00
4:19 AM,69.8,68.0,94,29.90,7.0,SW,8.1,-,N/A,,Overcast,230,2012-12-18 09:19:00
4:31 AM,69.8,68.0,94,29.90,7.0,SW,8.1,-,N/A,,Overcast,220,2012-12-18 09:31:00
4:53 AM,69.1,68.0,96,29.90,6.0,SW,6.9,-,N/A,,Mostly Cloudy,220,2012-12-18 09:53:00
5:20 AM,69.8,68.0,94,29.91,7.0,WSW,8.1,-,N/A,,Mostly Cloudy,240,2012-12-18 10:20:00
6:14 AM,69.8,68.0,94,29.93,6.0,SSW,6.9,-,N/A,,Mostly Cloudy,210,2012-12-18 11:14:00
6:26 AM,69.8,68.0,94,29.93,7.0,SW,9.2,-,N/A,,Mostly Cloudy,220,2012-12-18 11:26:00
6:53 AM,70.0,68.0,93,29.93,8.0,SW,8.1,-,N/A,,Overcast,220,2012-12-18 11:53:00
7:23 AM,69.8,68.0,94,29.94,9.0,SW,10.4,-,N/A,,Mostly Cloudy,230,2012-12-18 12:23:00
7:37 AM,69.8,68.0,94,29.94,7.0,SW,6.9,-,N/A,,Scattered Clouds,220,2012-12-18 12:37:00
7:49 AM,69.8,69.8,100,29.94,7.0,SW,5.8,-,N/A,,Mostly Cloudy,230,2012-12-18 12:49:00
7:53 AM,70.0,69.1,97,29.94,7.0,SW,6.9,-,N/A,,Mostly Cloudy,220,2012-12-18 12:53:00
8:11 AM,71.6,69.8,94,29.95,9.0,West,5.8,-,N/A,,Overcast,260,2012-12-18 13:11:00
8:21 AM,71.6,69.8,94,29.95,10.0,West,8.1,-,N/A,,Overcast,270,2012-12-18 13:21:00
8:35 AM,71.6,69.8,94,29.96,10.0,WSW,6.9,-,N/A,,Overcast,250,2012-12-18 13:35:00
8:48 AM,71.6,69.8,94,29.96,10.0,West,6.9,-,N/A,,Scattered Clouds,270,2012-12-18 13:48:00
8:53 AM,72.0,69.1,91,29.96,10.0,West,5.8,-,N/A,,Scattered Clouds,270,2012-12-18 13:53:00
9:53 AM,75.0,66.9,76,29.96,10.0,West,9.2,-,N/A,,Partly Cloudy,270,2012-12-18 14:53:00
10:53 AM,75.9,64.9,69,29.97,10.0,WNW,10.4,-,N/A,,Mostly Cloudy,290,2012-12-18 15:53:00
11:53 AM,77.0,62.1,60,29.97,10.0,West,12.7,-,N/A,,Partly Cloudy,280,2012-12-18 16:53:00
12:53 PM,78.1,61.0,56,29.95,10.0,WNW,11.5,-,N/A,,Clear,290,2012-12-18 17:53:00
1:53 PM,79.0,57.0,47,29.94,10.0,West,16.1,-,N/A,,Clear,280,2012-12-18 18:53:00
2:53 PM,78.1,52.0,40,29.94,10.0,WNW,13.8,23.0,N/A,,Clear,290,2012-12-18 19:53:00
3:53 PM,77.0,44.1,31,29.94,10.0,West,15.0,-,N/A,,Clear,270,2012-12-18 20:53:00
4:53 PM,73.9,45.0,35,29.96,10.0,West,10.4,-,N/A,,Clear,270,2012-12-18 21:53:00
5:53 PM,70.0,48.9,47,29.98,10.0,West,5.8,-,N/A,,Clear,280,2012-12-18 22:53:00
6:53 PM,66.0,48.0,52,30.00,10.0,West,4.6,-,N/A,,Clear,280,2012-12-18 23:53:00
7:53 PM,63.0,48.0,58,30.02,10.0,Calm,Calm,-,N/A,,Clear,0,2012-12-19 00:53:00
8:53 PM,61.0,48.0,62,30.03,10.0,NW,4.6,-,N/A,,Clear,310,2012-12-19 01:53:00
9:53 PM,55.0,48.0,77,30.05,10.0,SW,4.6,-,N/A,,Clear,220,2012-12-19 02:53:00
10:53 PM,57.0,48.9,74,30.05,10.0,Calm,Calm,-,N/A,,Clear,0,2012-12-19 03:53:00
11:53 PM,55.0,48.0,77,30.05,10.0,Calm,Calm,-,N/A,,Clear,0,2012-12-19 04:53:00